EW7074 Weather Reports


Display with metric or nautical units.
time (UTC)temp
F
wind
direction
speed
MPH
gust
MPH
rain 1hr
in
rain 24hr
in
rain mn
in
humidity
%
barometer
mb
20260502164024 72 242 0.0 0.0 0.00 0.04 0.85 79 1017.5
20260502163512 72 214 0.0 0.0 0.00 0.04 0.85 79 1017.6
20260502163004 73 254 0.0 0.0 0.00 0.04 0.85 80 1017.6
20260502162448 73 245 0.0 0.0 0.00 0.04 0.85 79 1017.5
20260502161933 73 201 0.0 0.0 0.00 0.04 0.85 79 1017.3
20260502161419 73 216 0.0 0.0 0.00 0.04 0.85 79 1017.2
20260502160906 73 241 0.0 0.0 0.00 0.04 0.85 79 1017.2
20260502160354 73 226 0.0 0.0 0.00 0.04 0.85 78 1017.1
20260502160112 73 232 0.0 0.0 0.00 0.04 0.85 78 1017.1
20260502152322 74 222 0.0 0.0 0.00 0.04 0.85 82 1016.6
20260502151821 73 254 0.0 0.0 0.00 0.04 0.85 81 1016.5
20260502151320 73 247 0.0 0.0 0.00 0.04 0.85 82 1016.4
20260502150821 73 242 0.0 0.0 0.00 0.04 0.85 82 1016.4
20260502150318 73 237 0.0 0.0 0.00 0.04 0.85 82 1016.4
20260502130708 69 278 0.0 0.0 0.00 0.03 0.84 92 1016.4
20260502130209 69 262 0.0 0.0 0.00 0.03 0.84 92 1016.3
20260502123205 68 243 0.0 0.0 0.00 0.03 0.84 93 1016.0
20260502122659 68 231 0.0 0.0 0.00 0.03 0.84 93 1016.0
20260502122157 68 235 0.0 0.0 0.00 0.03 0.84 93 1015.9
20260502121657 68 233 0.0 0.0 0.03 0.03 0.84 93 1015.6
20260502121155 68 241 0.0 0.0 0.03 0.03 0.84 93 1015.4
20260502120655 68 214 0.0 0.0 0.03 0.03 0.84 93 1015.5
20260502120155 68 239 0.0 0.0 0.03 0.03 0.84 93 1015.3
20260502115654 69 241 0.0 0.0 0.03 0.03 0.84 93 1015.2
20260502115138 69 271 0.0 0.0 0.03 0.03 0.84 93 1015.1
20260502115130 69 251 0.0 0.0 0.03 0.03 0.84 93 1014.8
20260502114113 69 244 0.0 0.0 0.03 0.03 0.84 93 1014.8
20260502113613 69 243 0.0 0.0 0.03 0.03 0.84 93 1014.9
20260502113108 69 226 0.0 0.0 0.03 0.03 0.84 93 1014.7
20260502112556 69 239 0.0 0.0 0.03 0.03 0.84 92 1014.6
20260502112049 69 254 0.0 0.0 0.02 0.02 0.84 92 1014.3
20260502111546 69 218 0.0 0.0 0.00 0.00 0.81 92 1014.2
20260502111041 69 219 0.0 0.0 0.00 0.00 0.81 92 1014.1
20260502110532 69 251 0.0 0.0 0.00 0.00 0.81 92 1013.9
20260502110303 69 266 0.0 0.0 0.00 0.00 0.81 92 1013.7
20260502105527 69 267 0.0 0.0 0.00 0.00 0.81 92 1013.4
20260502105001 68 274 0.0 0.0 0.00 0.00 0.81 92 1013.1
20260502104456 68 237 0.0 0.0 0.00 0.00 0.81 93 1013.0
20260502103942 68 236 0.0 0.0 0.00 0.00 0.81 92 1013.0
20260502103417 68 232 0.0 0.0 0.00 0.00 0.81 93 1012.7
20260502102909 68 228 0.0 0.0 0.00 0.00 0.81 92 1012.7
20260502102356 68 228 0.0 0.0 0.00 0.00 0.81 92 1012.7
20260502101844 68 209 0.0 0.0 0.00 0.00 0.81 92 1012.5
20260502101337 68 218 0.0 0.0 0.00 0.00 0.81 93 1012.3
20260502101110 68 218 0.0 0.0 0.00 0.00 0.81 93 1012.3
20260502100335 68 218 0.0 0.0 0.00 0.00 0.81 93 1012.1
20260502100315 68 210 0.0 0.0 0.00 0.00 0.81 93 1011.9
20260502091420 68 221 0.0 0.0 0.00 3.78 0.81 93 1011.3
20260502090910 68 218 0.0 0.0 0.00 3.78 0.81 93 1011.3
20260502090357 68 218 0.0 0.0 0.00 3.78 0.81 93 1011.1
20260502071033 68 185 0.0 0.0 0.00 3.78 0.81 93 1009.8
20260502070532 68 185 0.0 0.0 0.00 3.78 0.81 93 1010.1
20260502070031 68 185 0.0 0.0 0.00 3.78 0.81 93 1009.9
20260502065528 68 185 0.0 0.0 0.00 3.78 0.81 93 1010.2
20260502065257 68 185 0.0 0.0 0.01 3.78 0.81 93 1010.0
20260502064757 68 189 0.0 0.0 0.03 3.78 0.81 93 1009.9
20260502064020 68 204 0.0 0.0 0.05 3.78 0.81 93 1009.9
20260502063016 68 204 0.0 0.0 0.06 3.78 0.81 93 1009.9
20260502062513 68 199 0.0 0.0 0.08 3.78 0.81 93 1010.1
20260502062011 68 191 0.0 0.0 0.11 3.78 0.81 93 1009.9
20260502061510 68 204 0.0 0.0 0.13 3.78 0.81 93 1009.8
20260502061239 68 195 0.0 0.0 0.17 3.78 0.81 93 1010.1
20260502060509 68 206 0.0 0.0 0.19 3.78 0.81 93 1009.9
20260502060009 68 124 0.0 0.0 0.22 3.78 0.81 93 1009.1
20260502055508 68 76 0.0 0.0 0.27 3.78 0.81 93 1008.2
20260502055003 68 103 0.0 0.0 0.28 3.77 0.80 93 1008.9
20260502054502 68 69 0.0 0.0 0.30 3.75 0.80 93 1008.3
20260502054002 68 14 0.0 0.0 0.31 3.73 0.76 93 1009.6
20260502053502 67 22 0.0 0.0 0.33 3.72 0.75 93 1009.8
20260502053234 67 52 0.0 0.0 0.37 3.72 0.75 93 1010.2
20260502052502 67 79 0.0 0.0 0.38 3.70 0.73 93 1009.7
20260502052002 67 58 0.0 0.0 0.37 3.67 0.70 93 1010.5
20260502051733 67 112 0.0 0.0 0.37 3.65 0.68 93 1011.4
20260502051002 67 49 0.0 0.0 0.35 3.61 0.65 93 1011.1
20260502050500 67 47 0.0 0.0 0.35 3.59 0.62 93 1011.4
20260502050000 67 47 0.0 0.0 0.34 3.56 0.59 93 1011.5
20260502045501 67 46 0.0 0.0 0.32 3.51 0.54 93 1011.8
20260502045000 67 47 0.0 0.0 0.33 3.48 0.52 93 1011.7
20260502044458 67 47 0.0 0.0 0.32 3.45 0.48 93 1011.8
20260502043958 67 46 0.0 0.0 0.32 3.43 0.46 93 1012.1
20260502043456 67 45 0.0 0.0 0.31 3.39 0.42 93 1011.8
20260502042957 67 45 0.0 0.0 0.31 3.35 0.40 93 1011.4
20260502042455 67 60 0.0 0.0 0.30 3.32 0.37 93 1011.1
20260502041954 67 60 0.0 0.0 0.31 3.31 0.34 93 1011.3
20260502041455 67 60 0.0 0.0 0.28 3.28 0.31 93 1011.2
20260502041224 67 63 0.0 0.0 0.28 3.26 0.30 93 1011.3
20260502040452 67 63 0.0 0.0 0.25 3.23 0.26 93 1011.3
20260502040221 67 193 0.0 0.0 0.25 3.22 0.25 93 1011.7
20260502035451 67 193 0.0 0.0 0.24 3.19 0.22 93 1012.0
20260502035221 67 193 0.0 0.0 0.23 3.16 0.19 93 1012.2
20260502034449 67 193 0.0 0.0 0.23 3.13 0.16 93 1012.4
20260502033949 67 193 0.0 0.0 0.23 3.10 0.13 93 1012.4
20260502033454 67 201 0.0 0.0 0.20 3.04 0.07 93 1012.5
20260502033449 67 198 0.0 0.0 0.23 3.07 0.10 93 1012.5
20260502032447 67 205 0.0 0.0 0.19 3.02 0.05 93 1012.6
20260502031947 67 208 0.0 0.0 0.20 3.00 0.03 93 1012.3
20260502031721 67 29 0.0 0.0 0.22 2.98 0.03 93 1011.5
20260502030959 66 29 0.0 0.0 0.24 2.98 0.02 93 1011.4
20260502030457 66 60 0.0 0.0 0.25 2.98 0.02 93 1011.2
20260502025944 66 62 0.0 0.0 0.23 2.97 2.97 93 1010.8
20260502025442 66 44 0.0 0.0 0.24 2.96 2.96 93 1010.8
20260502024938 66 52 0.0 0.0 0.22 2.93 2.93 93 1011.1
20260502024438 66 70 0.0 0.0 0.19 2.88 2.90 93 1011.2
20260502022942 66 94 0.0 0.0 0.18 2.84 2.84 92 1011.4
20260502022429 67 79 0.0 0.0 0.16 2.81 2.81 92 1011.6
20260502021924 67 142 0.0 0.0 0.18 2.80 2.80 92 1011.6
20260502021655 67 59 0.0 0.0 0.19 2.76 2.76 92 1011.7
20260502021536 67 60 0.0 0.0 0.22 2.75 2.75 92 1012.0
20260502020423 67 81 0.0 0.0 0.28 2.74 2.74 92 1012.0
20260502015923 67 85 0.0 0.0 0.48 2.74 2.74 92 1011.9
20260502015420 67 60 0.0 0.0 0.61 2.72 2.72 92 1012.3
20260502014920 66 66 0.0 0.0 0.81 2.71 2.71 92 1012.9
20260502014651 66 80 0.0 0.0 0.91 2.69 2.69 92 1012.6
20260502013920 66 61 0.0 0.0 1.00 2.69 2.69 92 1012.7
20260502013420 67 71 0.0 0.0 1.11 2.68 2.68 92 1012.7
20260502012918 67 80 0.0 0.0 1.33 2.66 2.66 92 1012.2
20260502012417 67 62 0.0 0.0 1.44 2.65 2.66 92 1012.1
20260502011913 67 70 0.0 0.0 1.59 2.60 2.60 92 1012.2
20260502011414 67 52 0.0 0.0 1.90 2.57 2.59 92 1012.5
20260502011145 67 70 0.0 0.0 2.24 2.53 2.54 92 1012.2
20260502010644 67 87 0.0 0.0 2.17 2.46 2.46 92 1012.4
20260502005921 67 63 0.0 0.0 1.80 2.06 2.09 91 1014.7
20260502005914 67 64 0.0 0.0 1.98 2.26 2.31 91 1013.3
20260502004913 67 131 0.0 0.0 1.66 1.90 1.90 91 1014.6
20260502004410 67 124 0.0 0.0 1.57 1.78 1.78 91 1013.9
20260502003910 67 145 0.0 0.0 1.50 1.69 1.69 90 1013.5
20260502003408 67 107 0.0 0.0 1.33 1.52 1.54 90 1013.7
20260502002907 68 209 0.0 0.0 1.12 1.31 1.33 90 1013.9
20260502002133 68 224 0.0 2.0 0.83 1.02 1.05 89 1012.5
20260502001359 68 208 0.0 2.0 0.38 0.57 0.65 89 1014.0
20260502000857 69 261 0.0 0.0 0.09 0.28 0.28 88 1013.3
20260502000402 68 219 0.0 0.0 0.09 0.28 0.28 89 1010.5
20260501235858 68 113 0.0 0.0 0.09 0.28 0.28 89 1009.7
20260501235355 68 108 0.0 0.0 0.07 0.26 0.26 89 1010.6
20260501235124 69 116 0.0 0.0 0.05 0.24 0.25 88 1012.1
20260501234352 69 235 0.0 0.0 0.02 0.21 0.21 88 1013.1
20260501233846 69 207 0.0 0.0 0.00 0.19 0.19 89 1012.2
20260501233343 68 0 0.0 0.0 0.00 0.19 0.19 89 1011.1
20260501232842 68 64 0.0 0.0 0.00 0.19 0.19 89 1010.7
20260501232340 68 56 0.0 0.0 0.00 0.19 0.19 89 1010.4
20260501232109 68 54 0.0 0.0 0.00 0.19 0.19 89 1010.6
20260501231332 68 76 0.0 0.0 0.00 0.19 0.19 89 1010.4
20260501230831 68 52 0.0 0.0 0.00 0.19 0.19 89 1010.8
20260501230326 68 70 0.0 0.0 0.00 0.19 0.19 89 1011.0
20260501225823 68 44 0.0 0.0 0.00 0.19 0.19 89 1011.3
20260501224253 68 50 0.0 0.0 0.00 0.19 0.19 89 1011.1
20260501223746 68 47 0.0 0.0 0.00 0.19 0.19 90 1011.3
20260501223240 67 65 0.0 0.0 0.00 0.19 0.19 90 1011.6
20260501222731 67 65 0.0 0.0 0.00 0.19 0.19 90 1011.8
20260501222224 67 63 0.0 0.0 0.00 0.19 0.19 90 1011.8
20260501221714 67 55 0.0 0.0 0.00 0.19 0.19 90 1011.9
20260501221441 67 68 0.0 0.0 0.00 0.19 0.19 90 1012.2
20260501220148 67 67 0.0 0.0 0.00 0.19 0.19 90 1012.4
20260501215638 67 75 0.0 0.0 0.00 0.19 0.19 90 1012.4
20260501215127 67 58 0.0 0.0 0.00 0.19 0.19 90 1012.6
20260501214616 67 68 0.0 0.0 0.00 0.19 0.19 90 1012.8
20260501214106 67 96 0.0 0.0 0.00 0.19 0.19 90 1013.2
20260501213044 67 130 0.0 0.0 0.01 0.19 0.19 90 1013.8
20260501212534 67 175 0.0 0.0 0.01 0.19 0.19 90 1014.2
20260501212246 67 166 0.0 0.0 0.03 0.19 0.19 90 1013.8
20260501211505 67 89 0.0 0.0 0.07 0.19 0.19 90 1013.2
20260501210959 67 55 0.0 0.0 0.10 0.19 0.19 90 1012.8
20260501210721 67 56 0.0 0.0 0.13 0.19 0.19 90 1012.8
20260501205940 67 64 0.0 0.0 0.19 0.19 0.19 90 1012.8
20260501205430 67 47 0.0 0.0 0.19 0.19 0.19 90 1012.7
20260501204913 67 70 1.0 8.0 0.19 0.19 0.19 89 1012.8
20260501204404 67 61 1.0 8.0 0.19 0.19 0.19 89 1013.0
20260501203852 68 83 2.0 10.0 0.18 0.18 0.19 89 1013.0
20260501203342 68 95 3.0 10.0 0.18 0.18 0.18 89 1013.0
20260501202827 68 76 1.0 7.0 0.18 0.18 0.18 88 1013.4
20260501202318 68 113 3.0 10.0 0.18 0.18 0.18 88 1013.5
20260501201804 69 234 4.0 10.0 0.13 0.13 0.13 87 1014.6
20260501201522 69 213 3.0 13.0 0.12 0.12 0.12 86 1014.5
20260501200742 69 199 1.0 13.0 0.07 0.07 0.07 85 1013.8
20260501200231 70 116 0.0 2.0 0.02 0.02 0.03 85 1012.8
20260501195950 70 64 1.0 8.0 0.00 0.00 0.00 85 1012.6
20260501195209 70 129 3.0 7.0 0.00 0.00 0.00 84 1012.5
20260501194658 70 115 4.0 13.0 0.00 0.00 0.00 84 1012.4
20260501194140 70 107 3.0 13.0 0.00 0.00 0.00 83 1012.3
20260501193629 71 66 1.0 9.0 0.00 0.00 0.00 82 1012.3
20260501193119 71 110 1.0 9.0 0.00 0.00 0.00 82 1012.2
20260501192607 71 65 1.0 10.0 0.00 0.00 0.00 82 1012.2
20260501192058 71 202 2.0 13.0 0.00 0.00 0.00 82 1012.4
20260501191547 72 226 4.0 14.0 0.00 0.00 0.00 81 1012.3
20260501191038 72 193 4.0 14.0 0.00 0.00 0.00 80 1011.8
20260501190528 72 185 4.0 13.0 0.00 0.00 0.00 80 1010.8
20260501190029 73 196 6.0 13.0 0.00 0.00 0.00 79 1010.9
20260501185512 74 185 7.0 19.0 0.00 0.00 0.00 78 1010.5
20260501185008 75 147 8.0 19.0 0.00 0.00 0.00 76 1010.6
20260501184725 76 212 10.0 23.0 0.00 0.00 0.00 74 1009.9
20260501183954 78 180 11.0 23.0 0.00 0.00 0.00 70 1010.4
20260501183452 83 185 6.0 23.0 0.00 0.00 0.00 66 1010.6
20260501182951 84 185 1.0 8.0 0.00 0.00 0.00 62 1009.9
20260501181924 85 171 0.0 0.0 0.00 0.00 0.00 60 1009.1
20260501181425 86 142 0.0 0.0 0.00 0.00 0.00 58 1009.2
20260501180922 86 142 0.0 0.0 0.00 0.00 0.00 57 1009.1
20260501180420 86 120 0.0 0.0 0.00 0.00 0.00 56 1008.9
20260501175926 86 120 0.0 0.0 0.00 0.00 0.00 56 1008.8
20260501175919 86 120 0.0 0.0 0.00 0.00 0.00 56 1008.8
20260501174917 86 120 0.0 0.0 0.00 0.00 0.00 56 1008.9
20260501174416 86 120 0.0 0.0 0.00 0.00 0.00 55 1009.1
20260501173916 86 120 0.0 0.0 0.00 0.00 0.00 55 1009.1
20260501173417 86 120 0.0 0.0 0.00 0.00 0.00 55 1009.2
20260501172916 86 120 0.0 1.0 0.00 0.00 0.00 55 1009.4
20260501172423 86 120 0.0 2.0 0.00 0.00 0.00 55 1009.5
20260501172416 86 120 0.0 1.0 0.00 0.00 0.00 55 1009.3
20260501171416 86 64 0.0 2.0 0.00 0.00 0.00 55 1009.7